Volver al catálogo

STARLINK-32437

ActivoComunicacionesVLEO
NORAD 63001·PAYLOAD·🇺🇸 United States

Lanzado Feb 11, 2025 desde Cape Canaveral Space Force Station

Loading…

Próximos Pases (próximas 24 horas)

TLE

ActualizadoSource: CelesTrak SupGP

Época: Sep 14, 2026, 23:05 UTC

1 63001C 25031W   26257.96229167 -.00054059  00000+0 -19582-2 0  2573
2 63001  42.9987 154.8615 0001287 267.5424 211.6903 15.27603026    14

Sigue STARLINK-32437 en tiempo real con AllMySat

Download on the App Store